EROS B

Last updated on Tue Jul 01 2025 00:02:29 GMT+0000 (Coordinated Universal Time)

1 29079U 06014A 25181.58409904 .00026886 00000+0 65729-3 0 9995 2 29079 97.3473 294.8112 0003487 344.2108 15.9030 15.40779268 65225
UTC large
Height (km)
Speed (km/s)
/
Latitude / Longitude
Inclination (degrees)
Orbital Period (minutes)
Azimuth
Elevation
Range (km)
Doppler Factor

Next 0 passes for location: London (51.5072 / 0.1276)

Sorry there are no passes over London.